| Back to River Map | Start of River Group | | | Next Forecast Point >>> | Printer Version | Graph Version |  |
|
SISQUOC RIVER - SISQUOC (SSQC1)
| Latitude: 34.84º N | Longitude: 120.17º W | Elevation: 624 Feet | | Forecast Type: Unofficial Location |
| Location: Santa Barbara County in California | Bulletin Group: Southern California | River Group: Southern California |
| Issuance Time: | May 05 2026 at 7:23 AM PDT | Next Issuance: | May 06 2026 at 9:00 AM PDT
| |
| Action/Monitor: N/A | Minor Flood: N/A | Moderate Flood: N/A | Major Flood: N/A |
# Tabular Observed and Forecast Hydrograph Information
#
# Location: Sisquoc River - Sisquoc (SSQC1)
#
# File Generation Time: 05/05/2026 at 07:24 AM PDT
# Data Interval: 1 Hour
#
# Most Recent Date & Time of Maximum Observed: 05/01/2026 at 07:00 PM PDT
# Maximum Observed Stage: 1.58 Feet
# Maximum Observed Flow: 21 cfs
#
# Earliest Date & Time of Maximum Forecast: 05/05/2026 at 08:00 AM PDT
# Maximum Forecast Stage: 1.48 Feet
# Maximum Forecast Flow: 12 cfs
#
# OBSERVED
#
# Date & Time (Local) Stage (Feet) Flow (cfs) Trend Observed Status
# ---------------------------------------------------------------------------------
04/30/2026 07 AM PDT 1.49 13 Not Applicable
04/30/2026 08 AM PDT 1.55 18 + Not Applicable
04/30/2026 09 AM PDT 1.56 19 + Not Applicable
04/30/2026 10 AM PDT 1.56 19 0 Not Applicable
04/30/2026 11 AM PDT 1.56 19 0 Not Applicable
04/30/2026 12 PM PDT 1.56 19 0 Not Applicable
04/30/2026 01 PM PDT 1.54 17 - Not Applicable
04/30/2026 02 PM PDT 1.56 19 + Not Applicable
04/30/2026 03 PM PDT 1.56 19 0 Not Applicable
04/30/2026 04 PM PDT 1.54 17 - Not Applicable
04/30/2026 05 PM PDT 1.56 19 + Not Applicable
04/30/2026 06 PM PDT 1.56 19 0 Not Applicable
04/30/2026 07 PM PDT 1.53 16 - Not Applicable
04/30/2026 08 PM PDT 1.51 15 - Not Applicable
04/30/2026 09 PM PDT 1.51 15 0 Not Applicable
04/30/2026 10 PM PDT 1.53 16 + Not Applicable
04/30/2026 11 PM PDT 1.52 16 - Not Applicable
05/01/2026 12 AM PDT 1.52 16 0 Not Applicable
05/01/2026 01 AM PDT 1.52 16 0 Not Applicable
05/01/2026 02 AM PDT 1.55 18 + Not Applicable
05/01/2026 03 AM PDT 1.47 12 - Not Applicable
05/01/2026 04 AM PDT 1.52 16 + Not Applicable
05/01/2026 05 AM PDT 1.52 16 0 Not Applicable
05/01/2026 06 AM PDT 1.52 16 0 Not Applicable
05/01/2026 07 AM PDT 1.54 17 + Not Applicable
05/01/2026 08 AM PDT 1.54 17 0 Not Applicable
05/01/2026 09 AM PDT 1.53 16 - Not Applicable
05/01/2026 10 AM PDT 1.54 17 + Not Applicable
05/01/2026 11 AM PDT 1.56 19 + Not Applicable
05/01/2026 12 PM PDT 1.55 18 - Not Applicable
05/01/2026 01 PM PDT 1.55 18 0 Not Applicable
05/01/2026 02 PM PDT 1.55 18 0 Not Applicable
05/01/2026 03 PM PDT 1.55 18 0 Not Applicable
05/01/2026 04 PM PDT 1.55 18 0 Not Applicable
05/01/2026 05 PM PDT 1.55 18 0 Not Applicable
05/01/2026 06 PM PDT 1.55 18 0 Not Applicable
05/01/2026 07 PM PDT 1.58 21 + Not Applicable
05/01/2026 08 PM PDT 1.54 17 - Not Applicable
05/01/2026 09 PM PDT 1.52 16 - Not Applicable
05/01/2026 10 PM PDT 1.52 16 0 Not Applicable
05/01/2026 11 PM PDT 1.51 15 - Not Applicable
05/02/2026 12 AM PDT 1.52 16 + Not Applicable
05/02/2026 01 AM PDT 1.52 16 0 Not Applicable
05/02/2026 02 AM PDT 1.52 16 0 Not Applicable
05/02/2026 03 AM PDT 1.52 16 0 Not Applicable
05/02/2026 04 AM PDT 1.51 15 - Not Applicable
05/02/2026 05 AM PDT 1.51 15 0 Not Applicable
05/02/2026 06 AM PDT 1.51 15 0 Not Applicable
05/02/2026 07 AM PDT 1.53 16 + Not Applicable
05/02/2026 08 AM PDT 1.54 17 + Not Applicable
05/02/2026 09 AM PDT 1.54 17 0 Not Applicable
05/02/2026 10 AM PDT 1.54 17 0 Not Applicable
05/02/2026 11 AM PDT 1.54 17 0 Not Applicable
05/02/2026 12 PM PDT 1.54 17 0 Not Applicable
05/02/2026 01 PM PDT 1.54 17 0 Not Applicable
05/02/2026 02 PM PDT 1.54 17 0 Not Applicable
05/02/2026 03 PM PDT 1.54 17 0 Not Applicable
05/02/2026 04 PM PDT 1.52 16 - Not Applicable
05/02/2026 05 PM PDT 1.52 16 0 Not Applicable
05/02/2026 06 PM PDT 1.51 15 - Not Applicable
05/02/2026 07 PM PDT 1.49 13 - Not Applicable
05/02/2026 08 PM PDT 1.51 15 + Not Applicable
05/02/2026 09 PM PDT 1.57 20 + Not Applicable
05/02/2026 10 PM PDT 1.54 17 - Not Applicable
05/02/2026 11 PM PDT 1.50 14 - Not Applicable
05/03/2026 12 AM PDT 1.49 13 - Not Applicable
05/03/2026 01 AM PDT 1.47 12 - Not Applicable
05/03/2026 02 AM PDT 1.53 16 + Not Applicable
05/03/2026 03 AM PDT 1.52 16 - Not Applicable
05/03/2026 04 AM PDT 1.54 17 + Not Applicable
05/03/2026 05 AM PDT 1.54 17 0 Not Applicable
05/03/2026 06 AM PDT 1.49 13 - Not Applicable
05/03/2026 07 AM PDT 1.53 16 + Not Applicable
05/03/2026 08 AM PDT 1.52 16 - Not Applicable
05/03/2026 09 AM PDT 1.51 15 - Not Applicable
05/03/2026 10 AM PDT 1.52 16 + Not Applicable
05/03/2026 11 AM PDT 1.51 15 - Not Applicable
05/03/2026 12 PM PDT 1.52 16 + Not Applicable
05/03/2026 01 PM PDT 1.52 16 0 Not Applicable
05/03/2026 02 PM PDT 1.52 16 0 Not Applicable
05/03/2026 03 PM PDT 1.53 16 + Not Applicable
05/03/2026 04 PM PDT 1.54 17 + Not Applicable
05/03/2026 05 PM PDT 1.53 16 - Not Applicable
05/03/2026 06 PM PDT 1.53 16 0 Not Applicable
05/03/2026 07 PM PDT 1.54 17 + Not Applicable
05/03/2026 08 PM PDT 1.53 16 - Not Applicable
05/03/2026 09 PM PDT 1.54 17 + Not Applicable
05/03/2026 10 PM PDT 1.55 18 + Not Applicable
05/03/2026 11 PM PDT 1.53 16 - Not Applicable
05/04/2026 12 AM PDT 1.54 17 + Not Applicable
05/04/2026 01 AM PDT 1.55 18 + Not Applicable
05/04/2026 02 AM PDT 1.52 16 - Not Applicable
05/04/2026 03 AM PDT 1.54 17 + Not Applicable
05/04/2026 04 AM PDT 1.54 17 0 Not Applicable
05/04/2026 05 AM PDT 1.53 16 - Not Applicable
05/04/2026 06 AM PDT 1.52 16 - Not Applicable
05/04/2026 07 AM PDT 1.52 16 0 Not Applicable
05/04/2026 08 AM PDT 1.55 18 + Not Applicable
05/04/2026 09 AM PDT 1.56 19 + Not Applicable
05/04/2026 10 AM PDT 1.56 19 0 Not Applicable
05/04/2026 11 AM PDT 1.56 19 0 Not Applicable
05/04/2026 12 PM PDT 1.56 19 0 Not Applicable
05/04/2026 01 PM PDT 1.56 19 0 Not Applicable
05/04/2026 02 PM PDT 1.57 20 + Not Applicable
05/04/2026 03 PM PDT 1.56 19 - Not Applicable
05/04/2026 04 PM PDT 1.56 19 0 Not Applicable
05/04/2026 05 PM PDT 1.56 19 0 Not Applicable
05/04/2026 06 PM PDT 1.55 18 - Not Applicable
05/04/2026 07 PM PDT 1.56 19 + Not Applicable
05/04/2026 08 PM PDT 1.55 18 - Not Applicable
05/04/2026 09 PM PDT 1.55 18 0 Not Applicable
05/04/2026 10 PM PDT 1.54 17 - Not Applicable
05/04/2026 11 PM PDT 1.54 17 0 Not Applicable
05/05/2026 12 AM PDT 1.54 17 0 Not Applicable
05/05/2026 01 AM PDT 1.56 19 + Not Applicable
05/05/2026 02 AM PDT 1.55 18 - Not Applicable
05/05/2026 03 AM PDT 1.52 16 - Not Applicable
05/05/2026 04 AM PDT 1.52 16 0 Not Applicable
05/05/2026 05 AM PDT 1.51 15 - Not Applicable
05/05/2026 06 AM PDT 1.51 15 0 Not Applicable
05/05/2026 07 AM PDT 1.50 14 - Not Applicable
#
# FORECAST
#
# Date & Time (Local) Stage (Feet) Flow (cfs) Trend Forecast Status
# ---------------------------------------------------------------------------------
05/05/2026 08 AM PDT 1.48 12 Not Applicable
05/05/2026 09 AM PDT 1.48 12 0 Not Applicable
05/05/2026 10 AM PDT 1.48 12 0 Not Applicable
05/05/2026 11 AM PDT 1.48 12 0 Not Applicable
05/05/2026 12 PM PDT 1.48 12 0 Not Applicable
05/05/2026 01 PM PDT 1.48 12 0 Not Applicable
05/05/2026 02 PM PDT 1.48 12 0 Not Applicable
05/05/2026 03 PM PDT 1.48 12 0 Not Applicable
05/05/2026 04 PM PDT 1.48 12 0 Not Applicable
05/05/2026 05 PM PDT 1.48 12 0 Not Applicable
05/05/2026 06 PM PDT 1.48 12 0 Not Applicable
05/05/2026 07 PM PDT 1.48 12 0 Not Applicable
05/05/2026 08 PM PDT 1.48 12 0 Not Applicable
05/05/2026 09 PM PDT 1.47 12 - Not Applicable
05/05/2026 10 PM PDT 1.47 12 0 Not Applicable
05/05/2026 11 PM PDT 1.47 12 0 Not Applicable
05/06/2026 12 AM PDT 1.47 12 0 Not Applicable
05/06/2026 01 AM PDT 1.47 12 0 Not Applicable
05/06/2026 02 AM PDT 1.47 12 0 Not Applicable
05/06/2026 03 AM PDT 1.47 12 0 Not Applicable
05/06/2026 04 AM PDT 1.47 12 0 Not Applicable
05/06/2026 05 AM PDT 1.47 12 0 Not Applicable
05/06/2026 06 AM PDT 1.47 12 0 Not Applicable
05/06/2026 07 AM PDT 1.47 12 0 Not Applicable
05/06/2026 08 AM PDT 1.47 12 0 Not Applicable
05/06/2026 09 AM PDT 1.47 12 0 Not Applicable
05/06/2026 10 AM PDT 1.47 12 0 Not Applicable
05/06/2026 11 AM PDT 1.47 12 0 Not Applicable
05/06/2026 12 PM PDT 1.47 12 0 Not Applicable
05/06/2026 01 PM PDT 1.47 12 0 Not Applicable
05/06/2026 02 PM PDT 1.47 12 0 Not Applicable
05/06/2026 03 PM PDT 1.47 12 0 Not Applicable
05/06/2026 04 PM PDT 1.47 12 0 Not Applicable
05/06/2026 05 PM PDT 1.47 12 0 Not Applicable
05/06/2026 06 PM PDT 1.46 11 - Not Applicable
05/06/2026 07 PM PDT 1.46 11 0 Not Applicable
05/06/2026 08 PM PDT 1.46 11 0 Not Applicable
05/06/2026 09 PM PDT 1.46 11 0 Not Applicable
05/06/2026 10 PM PDT 1.46 11 0 Not Applicable
05/06/2026 11 PM PDT 1.46 11 0 Not Applicable
05/07/2026 12 AM PDT 1.46 11 0 Not Applicable
05/07/2026 01 AM PDT 1.46 11 0 Not Applicable
05/07/2026 02 AM PDT 1.46 11 0 Not Applicable
05/07/2026 03 AM PDT 1.46 11 0 Not Applicable
05/07/2026 04 AM PDT 1.46 11 0 Not Applicable
05/07/2026 05 AM PDT 1.46 11 0 Not Applicable
05/07/2026 06 AM PDT 1.46 11 0 Not Applicable
05/07/2026 07 AM PDT 1.46 11 0 Not Applicable
05/07/2026 08 AM PDT 1.46 11 0 Not Applicable
05/07/2026 09 AM PDT 1.46 11 0 Not Applicable
05/07/2026 10 AM PDT 1.46 11 0 Not Applicable
05/07/2026 11 AM PDT 1.46 11 0 Not Applicable
05/07/2026 12 PM PDT 1.46 11 0 Not Applicable
05/07/2026 01 PM PDT 1.46 11 0 Not Applicable
05/07/2026 02 PM PDT 1.46 11 0 Not Applicable
05/07/2026 03 PM PDT 1.46 11 0 Not Applicable
05/07/2026 04 PM PDT 1.45 10 - Not Applicable
05/07/2026 05 PM PDT 1.45 10 0 Not Applicable
05/07/2026 06 PM PDT 1.45 10 0 Not Applicable
05/07/2026 07 PM PDT 1.45 10 0 Not Applicable
05/07/2026 08 PM PDT 1.45 10 0 Not Applicable
05/07/2026 09 PM PDT 1.45 10 0 Not Applicable
05/07/2026 10 PM PDT 1.45 10 0 Not Applicable
05/07/2026 11 PM PDT 1.45 10 0 Not Applicable
05/08/2026 12 AM PDT 1.45 10 0 Not Applicable
05/08/2026 01 AM PDT 1.45 10 0 Not Applicable
05/08/2026 02 AM PDT 1.45 10 0 Not Applicable
05/08/2026 03 AM PDT 1.45 10 0 Not Applicable
05/08/2026 04 AM PDT 1.45 10 0 Not Applicable
05/08/2026 05 AM PDT 1.45 10 0 Not Applicable
05/08/2026 06 AM PDT 1.45 10 0 Not Applicable
05/08/2026 07 AM PDT 1.45 10 0 Not Applicable
05/08/2026 08 AM PDT 1.45 10 0 Not Applicable
05/08/2026 09 AM PDT 1.44 10 - Not Applicable
05/08/2026 10 AM PDT 1.44 10 0 Not Applicable
05/08/2026 11 AM PDT 1.44 10 0 Not Applicable
05/08/2026 12 PM PDT 1.44 10 0 Not Applicable
05/08/2026 01 PM PDT 1.44 10 0 Not Applicable
05/08/2026 02 PM PDT 1.44 10 0 Not Applicable
05/08/2026 03 PM PDT 1.44 10 0 Not Applicable
05/08/2026 04 PM PDT 1.44 10 0 Not Applicable
05/08/2026 05 PM PDT 1.44 10 0 Not Applicable
05/08/2026 06 PM PDT 1.44 10 0 Not Applicable
05/08/2026 07 PM PDT 1.44 10 0 Not Applicable
05/08/2026 08 PM PDT 1.44 10 0 Not Applicable
05/08/2026 09 PM PDT 1.44 10 0 Not Applicable
05/08/2026 10 PM PDT 1.44 10 0 Not Applicable
05/08/2026 11 PM PDT 1.44 10 0 Not Applicable
05/09/2026 12 AM PDT 1.44 10 0 Not Applicable
05/09/2026 01 AM PDT 1.44 10 0 Not Applicable
05/09/2026 02 AM PDT 1.44 10 0 Not Applicable
05/09/2026 03 AM PDT 1.43 9 - Not Applicable
05/09/2026 04 AM PDT 1.43 9 0 Not Applicable
05/09/2026 05 AM PDT 1.43 9 0 Not Applicable
05/09/2026 06 AM PDT 1.43 9 0 Not Applicable
05/09/2026 07 AM PDT 1.43 9 0 Not Applicable
05/09/2026 08 AM PDT 1.43 9 0 Not Applicable
05/09/2026 09 AM PDT 1.43 9 0 Not Applicable
05/09/2026 10 AM PDT 1.43 9 0 Not Applicable
05/09/2026 11 AM PDT 1.43 9 0 Not Applicable
05/09/2026 12 PM PDT 1.43 9 0 Not Applicable
05/09/2026 01 PM PDT 1.43 9 0 Not Applicable
05/09/2026 02 PM PDT 1.43 9 0 Not Applicable
05/09/2026 03 PM PDT 1.43 9 0 Not Applicable
05/09/2026 04 PM PDT 1.43 9 0 Not Applicable
05/09/2026 05 PM PDT 1.43 9 0 Not Applicable
05/09/2026 06 PM PDT 1.42 8 - Not Applicable
05/09/2026 07 PM PDT 1.42 8 0 Not Applicable
05/09/2026 08 PM PDT 1.42 8 0 Not Applicable
05/09/2026 09 PM PDT 1.42 8 0 Not Applicable
05/09/2026 10 PM PDT 1.42 8 0 Not Applicable
05/09/2026 11 PM PDT 1.42 8 0 Not Applicable
05/10/2026 12 AM PDT 1.42 8 0 Not Applicable
05/10/2026 01 AM PDT 1.42 8 0 Not Applicable
05/10/2026 02 AM PDT 1.42 8 0 Not Applicable
05/10/2026 03 AM PDT 1.42 8 0 Not Applicable
05/10/2026 04 AM PDT 1.42 8 0 Not Applicable
05/10/2026 05 AM PDT 1.42 8 0 Not Applicable
#
# NOTE 1: Stages are rounded to the nearest hundredth (.01) of a foot.
# NOTE 2: Flows are rounded to the nearest (1) cfs.
# NOTE 3: Trends are determined using hourly change in unrounded stage and flow.
# NOTE 4: Maximum Values are determined using unrounded stage and flow.
|